Weather History for Tulsa Jones, OK

Change the Weather History Date:

Thursday, November 14, 2013

  Actual Average (KTUL) Record (KTUL)
Temperature  
Mean Temperature 42 °F 51 °F  
Max Temperature 55 °F 62 °F 79 °F (1960)
Min Temperature 30 °F 40 °F 13 °F (1916)
Degree Days  
Heating Degree Days 22 14  
Month to date heating degree days 161  
Since 1 July heating degree days 347  
Moisture  
Dew Point 26 °F    
Average Humidity 50    
Maximum Humidity 72    
Minimum Humidity 28    
Precipitation  
Precipitation 0.00 in 0.10 in 1.72 in (1909)
Month to date precipitation 1.48  
Year to date precipitation 37.15  
Sea Level Pressure  
Sea Level Pressure 30.17 in    
Wind  
Wind Speed 7 mph (South)    
Max Wind Speed 17 mph    
Max Gust Speed 24 mph    
Visibility 10 miles    
Events      
T = Trace of Precipitation, MM = Missing Value Source: NWS Daily Summary

Daily Weather History Graph

Daily Weather History Graph

Search for Another Location

Airport:

Trip Planner

Search our weather history database for the weather conditions in past years. The results will help you decide how hot, cold, wet, or windy it might be!

Date:

Astronomy

Nov. 14, 2013 Rise Set
Actual Time 6:59 AM CST 5:16 PM CST
Civil Twilight 6:32 AM CST 5:43 PM CST
Nautical Twilight 6:01 AM CST 6:14 PM CST
Astronomical Twilight 5:31 AM CST 6:45 PM CST
Moon 3:34 PM CST (11/14) 4:01 AM CST (11/14)
Length of Visible Light 11h 11m
Length of Day
10h 16m
Waxing Gibbous, 92% of the Moon is Illuminated
Nov 14
Waxing Gibbous
Nov 17
Full
Nov 25
Last Quarter
Dec 2
New
Dec 9
First Quarter

Hourly Weather History & Observations

Time (CST) Temp. Windchill Dew Point Humidity Pressure Visibility Wind Dir Wind Speed Gust Speed Precip Events Conditions
12:53 AM 32.0 °F 28.7 °F 23.0 °F 69% 30.34 in 10.0 mi South 3.5 mph - N/A   Clear
1:53 AM 30.9 °F 27.5 °F 23.0 °F 72% 30.31 in 10.0 mi South 3.5 mph - N/A   Clear
2:53 AM 32.0 °F 26.4 °F 23.0 °F 69% 30.30 in 10.0 mi SSW 5.8 mph - N/A   Clear
3:53 AM 36.0 °F 29.6 °F 23.0 °F 59% 30.28 in 10.0 mi South 8.1 mph - N/A   Clear
4:53 AM 35.1 °F 29.3 °F 21.9 °F 59% 30.27 in 10.0 mi SSW 6.9 mph - N/A   Clear
5:53 AM 32.0 °F 27.5 °F 21.9 °F 66% 30.27 in 10.0 mi SE 4.6 mph - N/A   Clear
6:53 AM 32.0 °F 28.7 °F 23.0 °F 69% 30.27 in 10.0 mi South 3.5 mph - N/A   Clear
7:53 AM 34.0 °F - 23.0 °F 64% 30.27 in 10.0 mi Calm Calm - N/A   Clear
8:53 AM 41.0 °F 32.8 °F 24.1 °F 51% 30.25 in 10.0 mi South 16.1 mph 20.7 mph N/A   Clear
9:53 AM 46.0 °F 40.6 °F 25.0 °F 44% 30.24 in 10.0 mi South 11.5 mph 20.7 mph N/A   Clear
10:53 AM 48.9 °F - 25.0 °F 39% 30.22 in 10.0 mi South 11.5 mph - N/A   Clear
11:53 AM 51.1 °F - 25.0 °F 36% 30.18 in 10.0 mi South 15.0 mph 21.9 mph N/A   Clear
12:53 PM 54.0 °F - 26.1 °F 34% 30.12 in 10.0 mi South 15.0 mph 23.0 mph N/A   Overcast
1:53 PM 55.9 °F - 26.1 °F 32% 30.09 in 10.0 mi South 17.3 mph 24.2 mph N/A   Partly Cloudy
2:53 PM 55.0 °F - 25.0 °F 31% 30.07 in 10.0 mi South 9.2 mph 18.4 mph N/A   Clear
3:53 PM 55.9 °F - 23.0 °F 28% 30.06 in 10.0 mi SSE 10.4 mph - N/A   Clear
4:53 PM 53.1 °F - 24.1 °F 32% 30.05 in 10.0 mi South 11.5 mph 19.6 mph N/A   Partly Cloudy
5:53 PM 51.1 °F - 25.0 °F 36% 30.05 in 10.0 mi South 11.5 mph - N/A   Scattered Clouds
6:53 PM 51.1 °F - 26.1 °F 38% 30.06 in 10.0 mi South 9.2 mph 17.3 mph N/A   Mostly Cloudy
7:53 PM 51.1 °F - 27.0 °F 39% 30.05 in 10.0 mi South 13.8 mph - N/A   Mostly Cloudy
8:53 PM 50.0 °F - 30.9 °F 48% 30.06 in 10.0 mi South 10.4 mph - N/A   Overcast
9:53 PM 48.9 °F - 33.1 °F 54% 30.07 in 10.0 mi South 4.6 mph - N/A   Overcast
10:53 PM 48.0 °F - 34.0 °F 58% 30.04 in 10.0 mi SSE 5.8 mph - N/A   Overcast
11:53 PM 46.9 °F - 34.0 °F 61% 30.05 in 10.0 mi Calm Calm - N/A   Mostly Cloudy